TimeEDT,TemperatureF,Dew PointF,Humidity,Sea Level PressureIn,VisibilityMPH,Wind Direction,Wind SpeedMPH,Gust SpeedMPH,PrecipitationIn,Events,Conditions,WindDirDegrees,DateUTC
12:15 AM,64.4,53.6,68,30.10,7.0,Calm,Calm,-,N/A,,Clear,0,2013-09-12 04:15:00
12:35 AM,62.6,53.6,72,30.10,7.0,Calm,Calm,-,N/A,,Clear,0,2013-09-12 04:35:00
12:55 AM,62.6,60.8,94,30.10,7.0,Calm,Calm,-,N/A,,Clear,0,2013-09-12 04:55:00
1:15 AM,62.6,59.0,88,30.09,7.0,Calm,Calm,-,N/A,,Clear,0,2013-09-12 05:15:00
1:35 AM,60.8,59.0,94,30.09,7.0,Calm,Calm,-,N/A,,Clear,0,2013-09-12 05:35:00
1:55 AM,60.8,59.0,94,30.09,7.0,Calm,Calm,-,N/A,,Clear,0,2013-09-12 05:55:00
2:15 AM,60.8,57.2,88,30.08,5.0,Calm,Calm,-,N/A,,Clear,0,2013-09-12 06:15:00
2:35 AM,60.8,59.0,94,30.08,7.0,Calm,Calm,-,N/A,,Clear,0,2013-09-12 06:35:00
2:55 AM,60.8,59.0,94,30.08,7.0,Calm,Calm,-,N/A,,Clear,0,2013-09-12 06:55:00
3:15 AM,59.0,57.2,94,30.08,7.0,Calm,Calm,-,N/A,,Clear,0,2013-09-12 07:15:00
3:35 AM,59.0,57.2,94,30.07,7.0,Calm,Calm,-,N/A,,Clear,0,2013-09-12 07:35:00
3:55 AM,59.0,57.2,94,30.06,7.0,Calm,Calm,-,N/A,,Clear,0,2013-09-12 07:55:00
4:15 AM,59.0,57.2,94,30.06,7.0,Calm,Calm,-,N/A,,Clear,0,2013-09-12 08:15:00
4:35 AM,59.0,57.2,94,30.06,7.0,Calm,Calm,-,N/A,,Clear,0,2013-09-12 08:35:00
4:55 AM,59.0,55.4,88,30.06,7.0,Calm,Calm,-,N/A,,Clear,0,2013-09-12 08:55:00
5:15 AM,59.0,59.0,100,30.05,7.0,Calm,Calm,-,N/A,,Clear,0,2013-09-12 09:15:00
5:35 AM,59.0,59.0,100,30.05,7.0,Calm,Calm,-,N/A,,Clear,0,2013-09-12 09:35:00
5:55 AM,59.0,57.2,94,30.05,7.0,Calm,Calm,-,N/A,,Clear,0,2013-09-12 09:55:00
6:15 AM,59.0,59.0,100,30.05,7.0,Calm,Calm,-,N/A,,Clear,0,2013-09-12 10:15:00
6:35 AM,59.0,59.0,100,30.05,7.0,Calm,Calm,-,N/A,,Clear,0,2013-09-12 10:35:00
6:55 AM,59.0,57.2,94,30.06,7.0,Calm,Calm,-,N/A,,Clear,0,2013-09-12 10:55:00
7:15 AM,59.0,55.4,88,30.06,7.0,Calm,Calm,-,N/A,,Clear,0,2013-09-12 11:15:00
7:35 AM,59.0,57.2,94,30.06,5.0,Calm,Calm,-,N/A,,Clear,0,2013-09-12 11:35:00
7:55 AM,60.8,59.0,94,30.06,7.0,Calm,Calm,-,N/A,,Clear,0,2013-09-12 11:55:00
8:15 AM,60.8,60.8,100,30.06,7.0,Calm,Calm,-,N/A,,Clear,0,2013-09-12 12:15:00
8:35 AM,62.6,60.8,94,30.06,7.0,Calm,Calm,-,N/A,,Clear,0,2013-09-12 12:35:00
8:55 AM,66.2,62.6,88,30.06,10.0,Calm,Calm,-,N/A,,Clear,0,2013-09-12 12:55:00
9:15 AM,68.0,64.4,88,30.06,10.0,Calm,Calm,-,N/A,,Clear,0,2013-09-12 13:15:00
9:35 AM,69.8,64.4,83,30.06,10.0,Calm,Calm,-,N/A,,Clear,0,2013-09-12 13:35:00
9:55 AM,71.6,64.4,78,30.06,10.0,West,3.5,-,N/A,,Clear,260,2013-09-12 13:55:00
10:15 AM,73.4,62.6,69,30.05,10.0,WNW,3.5,-,N/A,,Clear,300,2013-09-12 14:15:00
10:35 AM,75.2,62.6,65,30.05,10.0,WSW,5.8,-,N/A,,Clear,240,2013-09-12 14:35:00
10:55 AM,77.0,64.4,65,30.05,10.0,Calm,Calm,-,N/A,,Clear,0,2013-09-12 14:55:00
11:15 AM,78.8,62.6,57,30.05,10.0,West,5.8,-,N/A,,Clear,270,2013-09-12 15:15:00
11:35 AM,78.8,55.4,44,30.04,7.0,West,4.6,-,N/A,,Clear,270,2013-09-12 15:35:00
11:55 AM,78.8,41.0,26,30.03,7.0,NW,3.5,-,N/A,,Clear,320,2013-09-12 15:55:00
12:15 PM,80.6,41.0,24,30.03,7.0,West,4.6,-,N/A,,Clear,260,2013-09-12 16:15:00
12:35 PM,80.6,60.8,51,30.02,7.0,WSW,6.9,-,N/A,,Clear,240,2013-09-12 16:35:00
12:55 PM,80.6,35.6,20,30.01,10.0,West,4.6,-,N/A,,Clear,280,2013-09-12 16:55:00
1:15 PM,80.6,68.0,65,30.00,10.0,South,4.6,-,N/A,,Clear,190,2013-09-12 17:15:00
1:35 PM,82.4,69.8,66,29.99,10.0,SSW,6.9,-,N/A,,Scattered Clouds,210,2013-09-12 17:35:00
1:55 PM,82.4,68.0,62,29.99,10.0,SSW,5.8,-,N/A,,Scattered Clouds,210,2013-09-12 17:55:00
2:15 PM,82.4,69.8,66,29.98,10.0,South,3.5,-,N/A,,Scattered Clouds,190,2013-09-12 18:15:00
2:35 PM,82.4,69.8,66,29.97,10.0,South,4.6,-,N/A,,Scattered Clouds,180,2013-09-12 18:35:00
2:55 PM,82.4,68.0,62,29.96,10.0,SW,3.5,-,N/A,,Clear,220,2013-09-12 18:55:00
3:15 PM,84.2,69.8,62,29.95,10.0,SSW,6.9,-,N/A,,Scattered Clouds,200,2013-09-12 19:15:00
3:35 PM,87.8,71.6,58,29.93,10.0,SW,5.8,-,N/A,,Scattered Clouds,220,2013-09-12 19:35:00
3:55 PM,87.8,71.6,58,29.92,10.0,South,5.8,-,N/A,,Scattered Clouds,190,2013-09-12 19:55:00
4:15 PM,87.8,73.4,62,29.91,10.0,Calm,Calm,-,N/A,,Scattered Clouds,0,2013-09-12 20:15:00
4:35 PM,87.8,73.4,62,29.90,10.0,WSW,5.8,-,N/A,,Scattered Clouds,240,2013-09-12 20:35:00
4:55 PM,87.8,73.4,62,29.90,10.0,WSW,5.8,-,N/A,,Scattered Clouds,250,2013-09-12 20:55:00
5:15 PM,87.8,73.4,62,29.90,10.0,SW,6.9,-,N/A,,Scattered Clouds,230,2013-09-12 21:15:00
5:35 PM,87.8,73.4,62,29.90,10.0,South,3.5,-,N/A,,Scattered Clouds,190,2013-09-12 21:35:00
5:55 PM,87.8,73.4,62,29.89,10.0,SSW,6.9,-,N/A,,Clear,210,2013-09-12 21:55:00
6:15 PM,87.8,73.4,62,29.88,10.0,Calm,Calm,-,N/A,,Clear,0,2013-09-12 22:15:00
6:35 PM,86.0,75.2,70,29.88,10.0,Calm,Calm,-,N/A,,Clear,0,2013-09-12 22:35:00
6:55 PM,86.0,77.0,74,29.88,10.0,Calm,Calm,-,N/A,,Clear,0,2013-09-12 22:55:00
7:15 PM,82.4,77.0,84,29.89,10.0,Calm,Calm,-,N/A,,Clear,0,2013-09-12 23:15:00
7:35 PM,78.8,77.0,94,29.88,10.0,Calm,Calm,-,N/A,,Clear,0,2013-09-12 23:35:00
7:55 PM,78.8,77.0,94,29.88,10.0,Calm,Calm,-,N/A,,Clear,0,2013-09-12 23:55:00
8:15 PM,77.0,75.2,94,29.88,10.0,Calm,Calm,-,N/A,,Clear,0,2013-09-13 00:15:00
8:35 PM,77.0,75.2,94,29.88,10.0,Calm,Calm,-,N/A,,Clear,0,2013-09-13 00:35:00
8:55 PM,77.0,75.2,94,29.89,10.0,Calm,Calm,-,N/A,,Clear,0,2013-09-13 00:55:00
9:15 PM,75.2,75.2,100,29.89,7.0,Calm,Calm,-,N/A,,Clear,0,2013-09-13 01:15:00
9:35 PM,77.0,75.2,94,29.90,7.0,Calm,Calm,-,N/A,,Clear,0,2013-09-13 01:35:00
9:55 PM,80.6,75.2,84,29.89,7.0,SSW,6.9,-,N/A,,Clear,200,2013-09-13 01:55:00
10:15 PM,80.6,77.0,89,29.90,10.0,SSW,8.1,-,N/A,,Clear,200,2013-09-13 02:15:00
10:35 PM,80.6,77.0,89,29.90,10.0,SSW,8.1,-,N/A,,Clear,200,2013-09-13 02:35:00
10:55 PM,78.8,75.2,89,29.90,10.0,SSW,8.1,-,N/A,,Scattered Clouds,210,2013-09-13 02:55:00
11:15 PM,78.8,75.2,89,29.90,7.0,SSW,3.5,-,N/A,,Clear,210,2013-09-13 03:15:00
11:35 PM,78.8,75.2,89,29.89,7.0,SW,5.8,-,N/A,,Clear,220,2013-09-13 03:35:00
11:55 PM,78.8,75.2,89,29.88,10.0,SSW,5.8,-,N/A,,Clear,210,2013-09-13 03:55:00